Weather WX

World > North America > United States > Missouri

Fairmont, Missouri Regional Weather

Lat: 40.33N, Lon: 91.9W
Wx Zone: MOZ010
Warning FLW WEATHER ALERT - (More Info. Click Here) Warning
Feedback

Fairmont, MO Regional Weather

Expires:201906241000;;992268
ASUS43 KLSX 240857
RWRMO 

WEATHER SUMMARY FOR MISSOURI
NATIONAL WEATHER SERVICE SPRINGFIELD MO
400 AM CDT MON JUN 24 2019

NOTE: "FAIR" INDICATES FEW OR NO CLOUDS BELOW 12,000 FEET WITH NO
       SIGNIFICANT WEATHER AND/OR OBSTRUCTIONS TO VISIBILITY.
       CURRENT SKY AND/OR WEATHER CONDITIONS ARE NOT AVAILABLE FOR
       CHILLICOTHE AND FARMINGTON.


MOZ001>031-035>038-043-044-053-054-241000-
...NORTHERN AND WESTERN MISSOURI...
  
CITY           SKY/WX    TMP DP  RH WIND       PRES   REMARKS
KANSAS CTY INT CLEAR     64  62  93 W10       29.74S                  
LEE'S SUMMIT   PTCLDY    67  64  90 W10       29.74S                  
ST JOSEPH      MOCLDY    65  61  87 W9        29.74R                  
CHILLICOTHE      N/A     68  66  93 SW5       29.71S                  
     
$$

SKY/WX - Weather  TMP - Temperature  DP - Dew Point  RH - Relative Humidity
WIND - Wind Direction/Speed PRES - Barometric Pressure VSB - Visibility
WCI - Wind Chill Index E13G22 Wind - East Wind 13 mph/Gusts of 22 mph